Location: Niedergestelen
(46.3129°N, 7.7822°E)
Time: 20:37:33
(UTC+00:00)

Landsat 5 - Pass Details

Date: 01 December 2020
Orbit: 528 x 654 km, 98.2° (Epoch: 27 January)

Event Time Altitude Azimuth Distance (km) Brightness Sun altitude
Rises 16:52:01 0° 10° (N) 2,945 6.7 -11.4°
Reaches altitude 10° 16:54:13 10° 6° (N) 2,045 6.0 -11.7°
Maximum altitude 16:58:37 59° 288° (WNW) 752 4.2 -12.5°
Drops below altitude 10° 17:03:03 10° 209° (SSW) 2,059 6.9 -13.2°
Sets 17:05:17 0° 206° (SSW) 2,967 7.7 -13.5°
